Regional Weather Roundup
Issued by NWS

Home | Current Version | Previous Version | Text Only | Print | Product List | Glossary Off
Versions: 1 2 3 4 5 6 7 8 9 10 11 12 13 14 15 16 17 18 19 20 21 22 23 24 25 26 27 28 29 30 31 32 33 34 35 36 37 38 39 40 41 42 43 44 45 46 47 48 49 50

000
ASUS43 KDMX 130101
RWRIA

WEATHER ROUNDUP FOR IOWA
NATIONAL WEATHER SERVICE DES MOINES IA
700 PM CST TUE DEC 12 2017

NOTE: "FAIR" INDICATES FEW OR NO CLOUDS BELOW 12,000 FEET WITH NO
SIGNIFICANT WEATHER AND/OR OBSTRUCTIONS TO VISIBILITY.

* - THESE STATIONS ARE NOT NWS STATIONS...THUS NOT UNDER NWS
QUALITY CONTROL.  THEY ALSO DO NOT REPORT WEATHER SUCH
AS PRECIPITATION OR FOG.

IAZ001>003-012>014-020>022-031>034-043>046-130200-
   NORTHWEST IOWA

CITY           SKY/WX    TMP DP  RH WIND       PRES   REMARKS
CARROLL *      CLEAR     30  21  69 SW10      29.94F WCI  21
CHEROKEE *     CLEAR     29  24  82 S7        29.89F WCI  22
DENISON *      CLEAR     30  23  74 SW5       29.95F WCI  25
LE MARS *      CLEAR     30  25  80 S7        29.88F WCI  23
ORANGE CITY *  CLEAR     32  28  86 S7        29.87F WCI  26
SHELDON *      CLEAR     32  27  80 S8        29.84F WCI  25
SIOUX CITY     CLEAR     30  23  75 SE7       29.90F WCI  23
SPENCER        CLEAR     26  20  77 SW6       29.87F WCI  19
STORM LAKE *   CLEAR     28  23  80 SW15      29.89F WCI  17
$$

IAZ055>058-069>071-079>083-090>094-130200-
   SOUTHWEST IOWA

CITY           SKY/WX    TMP DP  RH WIND       PRES   REMARKS
ATLANTIC *     CLOUDY    27  21  80 S7        29.98F WCI  19
AUDUBON *      CLOUDY    28  21  74 S5        29.96F WCI  23
CLARINDA *       N/A     28  21  74 S7        30.02F WCI  21
COUNCIL BLFS * CLEAR     36  30  80 S8        29.96F WCI  29
CRESTON *      CLOUDY    27  19  74 SW10      30.00F WCI  17
HARLAN  *      CLEAR     27  21  80 SW6       29.99F WCI  20
LAMONI         CLOUDY    27  18  69 S8        30.02F WCI  19
RED OAK *      CLEAR     30  23  74 S7        29.99F WCI  23
SHENANDOAH *   CLEAR     34  25  69 VRB5G13   30.00F WCI  30
$$

IAZ047>049-059>061-072>074-084-130200-
   CENTRAL IOWA

CITY           SKY/WX    TMP DP  RH WIND       PRES   REMARKS
AMES           CLOUDY    25  18  74 SW9       29.97F WCI  15
ANKENY *       CLOUDY    30  19  64 SW7       30.00F WCI  23
BOONE *        CLEAR     28  19  69 SW9       29.95F WCI  20
CHARITON *     CLEAR     27  18  69 SW6       30.01F WCI  20
DES MOINES     CLEAR     29  18  63 SW9       29.99F WCI  20
GRINNELL*      CLOUDY    24  10  56 S7        30.01F WCI  16
KNOXVILLE *    PTCLDY    27  12  54 SW8       29.99F WCI  18
MARSHALLTOWN   CLOUDY    23  14  68 S7        29.97F WCI  15
NEWTON *       CLOUDY    25  12  58 S8        29.99F WCI  16
PELLA *        CLOUDY    27  12  53 SW6       30.02F WCI  20
PERRY *          N/A     26  17  67 S10       29.97F WCI  16
$$

IAZ004>006-015-016-023>025-035-036-130200-
   NORTH CENTRAL IOWA

CITY           SKY/WX    TMP DP  RH WIND       PRES   REMARKS
ALGONA *       CLEAR     30  23  74 SW15      29.87F WCI  19
CLARION *      MOCLDY    27  19  74 S10       29.91F WCI  17
ESTHERVILLE    CLEAR     30  24  78 SW15      29.84F WCI  19
FORT DODGE *   CLEAR     30  22  72 SW12      29.92F WCI  20
MASON CITY     CLOUDY    23  17  78 S7        29.90F WCI  15
FOREST CITY *  MOCLDY    30  23  74 SW10      29.88F WCI  21
WEBSTER CITY * MOCLDY    28  19  69 SW12      29.91F WCI  18
IOWA FALLS *   MOCLDY    28  20  73 S8        29.95F WCI  20
$$

IAZ007>011-017>019-026>030-037>042-050>054-066-130200-
   NORTHEAST IOWA

CITY           SKY/WX    TMP DP  RH WIND       PRES   REMARKS
CEDAR RAPIDS   CLOUDY    23   9  55 SW8       30.00F WCI  14
CHARLES CITY * CLOUDY    27  16  63 S9        29.93F WCI  17
CLINTON *      CLOUDY    24  12  60 SW5       30.03F WCI  18
DECORAH *      CLOUDY    23  14  68 S8        29.91F WCI  14
DUBUQUE        CLOUDY    22  11  62 W8        29.98F WCI  12
MONTICELLO *   CLOUDY    25   7  46 SW5       30.00F WCI  19
OELWEIN *      CLOUDY    27  12  54 S10       29.96F WCI  17
WATERLOO       CLOUDY    26  12  55 S10       29.97F WCI  16
$$

IAZ064-065-067-068-078-130200-
   EAST CENTRAL IOWA

CITY           SKY/WX    TMP DP  RH WIND       PRES   REMARKS
DAVENPORT      CLOUDY    25   7  46 SW6       30.05F WCI  18
IOWA CITY      CLOUDY    27   8  44 SW3       30.05F
MT. PLEASANT * CLOUDY    25   2  37 S5        30.06F WCI  19
MUSCATINE *    CLOUDY    28   5  37 SW5       30.07S WCI  23
QUAD CITIES    CLOUDY    27   6  41 S3        30.04F
$$

IAZ062-063-075>077-085>089-095>099-130200-
   SOUTHEAST IOWA

CITY           SKY/WX    TMP DP  RH WIND       PRES   REMARKS
BURLINGTON     PTCLDY    24   6  46 SW5       30.06F HAZE    WCI  18
FAIRFIELD *    CLOUDY    23   3  42 CALM      30.05R
FORT MADISON * PTCLDY    28   1  31 CALM      30.07S
KEOKUK *       CLEAR     28   3  34 SW5       30.06F WCI  23
OSKALOOSA *      N/A     22   7  53 SW7       30.02F WCI  13
OTTUMWA        CLOUDY    23   7  50 S7        30.03F WCI  15
WASHINGTON *   CLOUDY    25   3  39 S3        30.05S
$$

ABBREVIATIONS USED IN REMARKS
   TC - TEMPERATURES IN CELSIUS
  WCI - WIND CHILL INDEX
   HX - HEAT INDEX
  VSB - VISIBILITY
$$





USA.gov is the U.S. government's official web portal to all federal, state and local government web resources and services.